{"data":{"norad_id":63309,"intl_designator":"2025-057C","name":"STARLINK-11585 [DTC]","alt_names":[],"object_type":"PAYLOAD","status":"ACTIVE","operator":null,"country":"US","launch_date":"2025-03-18","launch_site_code":"AFETR","launch_vehicle":null,"mission":null,"orbit_class":"UNKNOWN","rcs_meters":null,"size_class":null,"mass_kg":null,"dimensions":null,"purposes":["comms"],"wikipedia_slug":null,"has_3d_model":false,"image_url":null,"decayed_at":null,"tle_current":{"epoch":"2026-09-20T21:58:36.165504Z","epoch_age_seconds":122901,"freshness":"FRESH","line1":"1 63309U 25057C   26263.91569636  .00109501  00000+0  84622-3 0  9994","line2":"2 63309  43.0006 167.5886 0001700 246.4617 113.6072 15.70823845 87913","mean_motion":15.70823845,"eccentricity":0.00017,"inclination_deg":43.0006,"raan_deg":167.5886,"arg_perigee_deg":246.4617,"mean_anomaly_deg":113.6072,"bstar":0.00084622,"rev_number":8791,"period_min":91.671641259049,"perigee_km":355.39634067763,"apogee_km":357.68613127787,"semimajor_km":6734.6782359778,"source":"CELESTRAK","updated_at":"2026-09-21T09:00:34.967318Z"}}}